This is the latest recevied weather packets stored in our database for station/object NO9B. If no packets are shown the sender has not sent any weather packets the latest 10 day(s).
| Time | Temp. | Humidity | Pressure | Rain* | Wind** | Luminosity | Snow |
|---|---|---|---|---|---|---|---|
| 1788036677 | 23.89° C | 80% | 1019.6 hPa | 0 mm | - | 23 W/m² | - |
| 1788036373 | 23.89° C | 81% | 1019.4 hPa | 0 mm | - | 21 W/m² | - |
| 1788036073 | 23.89° C | 81% | 1019.3 hPa | 0 mm | - | 24 W/m² | - |
| 1788035772 | 23.89° C | 80% | 1019.4 hPa | 0 mm | - | 33 W/m² | - |
| 1788035468 | 23.89° C | 78% | 1019.6 hPa | 0 mm | - | 41 W/m² | - |
| 1788035163 | 23.89° C | 78% | 1019.5 hPa | 0 mm | - | 44 W/m² | - |
| 1788034859 | 23.89° C | 79% | 1019.6 hPa | 0.51 mm | - | 51 W/m² | - |
| 1788034554 | 23.89° C | 78% | 1019.4 hPa | 0 mm | - | 80 W/m² | - |
| 1788034251 | 23.89° C | 81% | 1019.7 hPa | 0 mm | - | 92 W/m² | - |
| 1788033950 | 23.89° C | 81% | 1019.5 hPa | 0 mm | - | 65 W/m² | - |
| 1788033646 | 23.89° C | 82% | 1019.4 hPa | 0 mm | - | 38 W/m² | - |
| 1788033344 | 23.89° C | 81% | 1019.4 hPa | 0 mm | - | 53 W/m² | - |
| 1788033040 | 23.89° C | 82% | 1019.6 hPa | 0 mm | - | 37 W/m² | - |
| 1788032739 | 23.89° C | 80% | 1019.5 hPa | 0 mm | - | 36 W/m² | - |
| 1788032434 | 23.89° C | 80% | 1019.5 hPa | 0 mm | - | 36 W/m² | - |
| 1788032130 | 23.89° C | 80% | 1019.4 hPa | 0 mm | - | 34 W/m² | - |
| 1788031827 | 23.89° C | 81% | 1019 hPa | 0 mm | - | 55 W/m² | - |
| 1788031521 | 23.89° C | 80% | 1019.2 hPa | 0 mm | - | 63 W/m² | - |
| 1788031221 | 23.89° C | 81% | 1019.2 hPa | 0 mm | - | 93 W/m² | - |
| 1788030920 | 23.89° C | 80% | 1019.4 hPa | 0 mm | - | 72 W/m² | - |
| 1788030619 | 23.89° C | 83% | 1019.9 hPa | 0 mm | - | 62 W/m² | - |
| 1788030320 | 23.89° C | 82% | 1019.7 hPa | 0.51 mm | - | 69 W/m² | - |
| 1788030015 | 23.33° C | 83% | 1019.8 hPa | 1.27 mm | - | 72 W/m² | - |
| 1788029710 | 23.33° C | 82% | 1019.9 hPa | 0.51 mm | - | 69 W/m² | - |
| 1788029405 | 23.33° C | 81% | 1020 hPa | 0 mm | - | 72 W/m² | - |
* Rain latest hour (hover to see other rain measurements)
** Current wind speed in m/s (hover to see current wind gust speed)